www.pogodaiklimat.ru

Погода и климат >> Архив погоды >> Польша >> Хель


ПОГОДА в Хеле

  • Прогноз погоды в Хеле
  • Монитор погоды в Хеле

АРХИВ ПОГОДЫ в Хеле

Время (UTC), дата Ветер
(напр.,м/с)
 
Видим.   Явления Облачность Т
(С)
Тd
(С)
f
(%)
Тe
(С)
Тes
(С)
Комфортность P
(гПа)
Po
(гПа)
Тmin
(С)
Tmax
(С)
R
(мм)
R24
(мм)
S
(см)
07 14.07 С 4 30 км 5/3 600 м
[Cu med, cong Ci sp]
+17.1 +11.8 71 +17 +20 1014.2 1013.9
08 14.07 СЗ 4 30 км 5/4 600 м
[Cu med, cong Ci sp]
+18.0 +11.3 65 +18 +22 1014.4 1014.1
09 14.07 С 3-8
{8}
30 км 5/4 600 м
[Cu med, cong Ci sp]
+18.2 +12.2 68 +19 +25 1014.6 1014.3
10 14.07 С 4 30 км 5/4 600 м
[Cu med, cong Ci sp]
+19.0 +11.6 62 +20 +26 1014.6 1014.3
11 14.07 С 4 30 км 4/1 600 м
[Cu med, cong Ci sp]
+19.3 +10.3 56 +20 +29 1014.8 1014.5
12 14.07 С 4
{8}
30 км 4/1 600 м
[Cu med, cong Ci sp]
+19.8 +11.8 60 +21 +30 комфорт 1014.7 1014.4
13 14.07 С 4 30 км 4/1 600 м
[Cu med, cong Ci sp]
+20.0 +9.3 50 +21 +28 комфорт 1014.6 1014.3
14 14.07 С 5 30 км 4/1 600 м
[Cu med, cong Ci sp]
+20.1 +9.3 50 +21 +25 комфорт 1014.5 1014.2
15 14.07 С 5 30 км 4/1 600 м
[Cu hum Ci sp]
+19.9 +7.6 45 +21 +23 комфорт 1014.4 1014.1
16 14.07 С 4
{10}
30 км 6/5 600 м
[Cu med, cong Ci sp]
+18.5 +12.3 67 +19 +20 1014.4 1014.1
17 14.07 С 4
{10}
30 км 6/5 600 м
[Cu med, cong Ci sp]
+17.3 +12.4 73 +17 +17 1014.3 1014.0
18 14.07 С 4
{10}
30 км 3/1 600 м
[Cu med, cong Ci sp]
+16.8 +11.3 70 +16 +16 1014.4 1014.1 +15.9 +20.6
19 14.07 СЗ 3 30 км 1/0
[Ci fib]
+15.5 +11.1 75 +15 +15 1014.5 1014.2
20 14.07 СЗ 2 30 км 1/0
[Ci fib]
+13.6 +10.2 80 +13 +13 1014.7 1014.4
21 14.07 СЗ 3 30 км 1/0
[Ci fib]
+12.5 +10.0 85 +11 +11 1014.8 1014.5
22 14.07 СЗ 3 30 км 1/1 300 м
[Cu hum]
+12.2 +10.6 90 +11 +11 1014.7 1014.4
23 14.07 С 2 30 км 3/3 300 м
[Cu med, cong]
+12.1 +10.8 92 +11 +11 1014.6 1014.3
00 15.07 СЗ 2 30 км 1/1 300 м
[Cu med, cong]
+11.7 +10.6 93 +10 +10 1014.8 1014.5
01 15.07 С 2 30 км ясно +10.9 +9.5 91 +10 +10 1014.6 1014.3
02 15.07 СЗ 2 30 км 3/1 300 м
[Cu med, cong Ci sp]
+10.6 +9.4 92 +9 +9 1014.4 1014.1
03 15.07 СЗ 2 30 км 4/1 300 м
[Cu med, cong Ci sp]
+10.6 +9.5 93 +9 +9 1014.4 1014.1
04 15.07 СЗ 2 30 км 4/1 300 м
[Cu med, cong Ci sp]
+11.4 +10.5 94 +10 +11 1014.3 1014.0
05 15.07 СЗ 2 30 км 5/1 300 м
[Cu med, cong Ci sp]
+13.3 +12.8 97 +12 +14 1014.3 1014.0
06 15.07 З 3 30 км 5/1 300 м
[Cu med, cong Ci sp]
+15.4 +13.6 89 +15 +18 1014.5 1014.2 +10.4 +16.8
07 15.07 З 2 30 км 6/5 300 м
[Cu med, cong Ci sp]
+16.3 +13.6 84 +16 +20 1014.6 1014.3
08 15.07 З 3 35 км 5/4 420 м
[Cu med, cong Ci sp]
+17.4 +13.1 76 +17 +23 1014.6 1014.3
09 15.07 З 2 35 км 3/3 600 м
[Cu med, cong Ci fib]
+19.0 +10.3 57 +20 +30 1014.5 1014.2
10 15.07 З 2 35 км 3/3 600 м
[Cu med, cong Ci fib]
+19.8 +10.5 55 +22 +32 комфорт 1014.4 1014.1
11 15.07 ЮВ 2 35 км 3/3 600 м
[Cu med, cong Ci fib]
+20.3 +10.7 54 +23 +33 комфорт 1014.1 1013.8
12 15.07 В 3 35 км 3/3 600 м
[Cu med, cong Ci fib]
+20.1 +12.1 60 +22 +31 комфорт 1013.9 1013.6
13 15.07 С 3 30 км 4/3 600 м
[Cu med, cong Ci sp]
+20.4 +13.6 65 +23 +30 комфорт 1013.7 1013.4
14 15.07 СВ 3 30 км 6/4 600 м
[Cu med, cong Ac trans Ci sp]
+19.9 +13.6 67 +22 +26 комфорт 1013.3 1013.0
15 15.07 С 3 30 км 8/3 600 м
[Cu med, cong Ac und Ci sp]
+18.8 +13.2 70 +20 +22 1012.9 1012.6
16 15.07 С 3 30 км 6/3 600 м
[Cu med, cong Ac trans Ci sp]
+19.2 +13.4 69 +21 +22 комфорт 1012.6 1012.3
17 15.07 С 4 30 км 6/3 300 м
[Cu med, cong Ac trans Ci sp]
+17.8 +13.5 76 +18 +18 1012.5 1012.2
18 15.07 СЗ 3 25 км в посл. час ливневой дождь 8/5 300 м
[Cb calv Ac trans Ci sp]
+17.2 +14.3 83 +17 +17 1012.2 1011.9 +15.4 +20.8 0.0
19 15.07 СЗ 3 30 км 9/9 600 м
[Cu med, cong]
+16.9 +13.4 80 +17 +17 1012.2 1011.9
20 15.07 СЗ 4 30 км 9/9 600 м
[Cu med, cong]
+16.8 +13.3 80 +16 +16 1012.1 1011.8
21 15.07 З 4 30 км 9/9 1000 м
[Cu med, cong]
+16.7 +13.0 79 +16 +16 1012.1 1011.8
22 15.07 З 3 3000 м 9/9 300 м
[Sc]
+16.3 +12.6 79 +16 +16 1011.7 1011.4
23 15.07 З 4 30 км 9/9 300 м
[Sc]
+16.2 +12.2 77 +15 +15 1011.5 1011.2
00 16.07 З 3 20 км 9/9 1000 м
[Sc]
+16.0 +11.6 75 +16 +16 1010.9 1010.6
01 16.07 З 4 30 км 9/9 1000 м
[Sc]
+15.9 +11.7 76 +15 +15 1010.5 1010.2
02 16.07 З 4 30 км 9/9 1000 м
[Sc]
+15.7 +11.3 75 +15 +15 1009.9 1009.6
03 16.07 З 5 25 км 9/5 1000 м
[Sc Ci sp]
+15.3 +11.5 78 +14 +14 1009.3 1009.0
04 16.07 З 4
{9}
25 км 9/9 1000 м
[Sc]
+15.7 +10.9 73 +15 +15 1008.8 1008.5
05 16.07 З 5 25 км 9/9 1000 м
[Sc]
+15.3 +11.3 77 +14 +14 1008.7 1008.4
06 16.07 З 6-11
{11}
25 км 9/9 1000 м
[Cu med, cong]
+15.4 +11.6 78 +14 +14 1008.5 1008.2 +15.2 +17.2
07 16.07 З 5 18 км в посл. час ливневой дождь 9/9 240 м
[Cb calv]
+15.1 +12.4 84 +14 +14 1008.6 1008.3
08 16.07 З 5
{10}
18 км 8/8 330 м
[Cu Sc]
+16.0 +12.7 81 +15 +16 1008.4 1008.1
09 16.07 З 5
{10}
20 км {ливн. осадки} 8/8 360 м
[Cu Sc]
+16.9 +12.8 77 +16 +18 1008.4 1008.1
10 16.07 СЗ 4 20 км в посл. час ливневой дождь 9/9 420 м
[Cu Sc]
+17.2 +12.5 74 +17 +18 1008.5 1008.2
11 16.07 С 4 20 км 9/9 600 м
[Cu Sc]
+17.0 +11.9 72 +17 +18 1008.9 1008.6
12 16.07 С 4
{10}
20 км {ливн. осадки} 8/8 600 м
[Cu Sc]
+17.2 +11.2 68 +17 +19 1008.9 1008.6 0.0
13 16.07 С 3
{9}
30 км 5/4 600 м
[Cu med, cong Ac trans Ci sp]
+18.5 +11.1 62 +19 +25 1008.8 1008.5
14 16.07 С 5
{9}
30 км 5/4 600 м
[Cu med, cong Ac trans Ci sp]
+18.2 +11.0 63 +18 +21 1009.2 1008.9
15 16.07 СЗ 4-9
{9}
30 км 4/3 600 м
[Cu med, cong Ci sp]
+18.7 +11.0 61 +19 +22 1009.2 1008.9
16 16.07 СЗ 4-9
{9}
30 км 6/1 600 м
[Cu hum Ac As]
+18.4 +9.5 56 +19 +20 1009.2 1008.9
17 16.07 СЗ 3 30 км 5/1 600 м
[Cu med, cong Ac As Ci fib]
+17.8 +9.9 60 +18 +19 1009.0 1008.7
18 16.07 З 4
{9}
30 км 8/4 600 м
[Cu Sc Ac As]
+17.4 +9.0 58 +17 +17 1008.8 1008.5 +14.8 +18.9 0.0
19 16.07 З 3 20 км слаб. ливневой дождь 9/9 1500 м
[Cb calv]
+16.7 +10.8 68 +16 +16 1008.7 1008.4
20 16.07 З 4-9
{11}
7000 м слаб. ливневой дождь 9/9 480 м
[Cb calv]
+13.0 +11.4 90 +11 +11 1009.0 1008.7
21 16.07 З 4
{11}
20 км в посл. час ливневой дождь 9/9 1500 м
[Sc]
+13.4 +12.0 91 +12 +12 1008.3 1008.0
22 16.07 З 4
{10}
30 км 8/3 1500 м
[Sc Ac As]
+14.2 +13.1 93 +13 +13 1008.2 1007.9
23 16.07 З 3 30 км 8/1 1000 м
[Sc Ac As]
+14.8 +13.8 94 +14 +14 1008.1 1007.8
00 17.07 СЗ 2
{11}
30 км 9/4 600 м
[Cu Sc Ac As]
+14.1 +12.5 90 +14 +14 1007.9 1007.6 4
01 17.07 СЗ 3 20 км в посл. час ливневой дождь 9/9 1000 м
[Cb calv]
+13.6 +12.7 94 +12 +12 1007.8 1007.5
02 17.07 С 3 20 км слаб. ливневой дождь 9/9 330 м
[Cb calv]
+13.6 +12.8 95 +12 +12 1007.7 1007.4
03 17.07 С 4 30 км в посл. час ливневой дождь 9/9 400 м
[Cu med, cong]
+13.3 +12.4 94 +12 +12 1008.4 1008.1
04 17.07 С 3 10 км ливневой дождь 9/9 300 м
[Cb calv]
+13.2 +12.4 95 +12 +12 1008.7 1008.4
05 17.07 С 4 30 км в посл. час ливневой дождь 9/9 600 м
[Cu Sc]
+14.1 +12.7 91 +13 +13 1009.0 1008.7
06 17.07 С 5 30 км {ливн. осадки} 9/9 300 м
[Cb calv]
+14.6 +11.9 84 +13 +13 1009.6 1009.3 +12.6 +17.4 8
07 17.07 С 4 30 км в посл. час ливневой дождь 8/8 600 м
[Cb calv]
+15.0 +11.9 82 +14 +15 1010.2 1009.9
08 17.07 С 5
{9}
30 км 6/6 600 м
[Cu med, cong]
+17.1 +11.6 70 +16 +19 1010.5 1010.2
09 17.07 С 5
{9}
35 км {ливн. осадки} 6/6 600 м
[Cu med, cong]
+17.5 +10.8 65 +17 +20 1011.3 1011.0
10 17.07 С 5-10
{10}
35 км 5/5 600 м
[Cu med, cong]
+17.9 +11.2 65 +18 +22 1011.6 1011.3
11 17.07 СЗ 5
{11}
35 км 4/4 600 м
[Cu med, cong]
+18.0 +11.1 64 +18 +23 1012.0 1011.7
12 17.07 С 5-10
{11}
35 км {ливн. осадки} 3/3 600 м
[Cu med, cong]
+18.2 +11.0 63 +18 +23 1012.2 1011.9 0.0
13 17.07 С 4-11
{11}
35 км 4/4 600 м
[Cu med, cong]
+17.3 +10.4 64 +17 +22 1012.5 1012.2
14 17.07 СЗ 5-10
{10}
35 км 4/4 600 м
[Cu med, cong]
+17.8 +10.7 63 +17 +20 1012.6 1012.3
15 17.07 СЗ 4
{11}
35 км 3/3 600 м
[Cu med, cong]
+17.4 +10.5 64 +17 +20 1012.8 1012.5
16 17.07 СЗ 4 35 км 3/3 600 м
[Cu hum]
+17.4 +10.5 64 +17 +19 1012.9 1012.6
17 17.07 СЗ 4
{10}
30 км 3/1 600 м
[Cu hum Ci fib]
+16.2 +10.7 70 +16 +16 1013.0 1012.7
18 17.07 СЗ 4
{11}
30 км 3/3 600 м
[Cu hum Ci fib]
+15.7 +11.1 74 +15 +15 1013.2 1012.9 +14.3 +18.4 0.0
19 17.07 СЗ 3 35 км 3/3 600 м
[Cu hum Ci fib]
+14.7 +11.1 79 +14 +14 1013.2 1012.9
20 17.07 СЗ 3 35 км 1/1 600 м
[Cu hum Ci fib]
+13.9 +11.1 83 +13 +13 1013.3 1013.0
21 17.07 СЗ 3 30 км 1/1 600 м
[Cu hum Ci fib]
+13.3 +11.2 87 +12 +12 1013.2 1012.9
22 17.07 СЗ 3 30 км 1/1 600 м
[Cu hum]
+13.2 +11.3 88 +12 +12 1013.3 1013.0
23 17.07 СЗ 2 30 км 3/3 600 м
[Cu hum]
+12.9 +11.3 90 +12 +12 1013.3 1013.0
00 18.07 СЗ 3 25 км 3/3 600 м
[Cu hum]
+13.3 +11.9 91 +12 +12 1013.3 1013.0
01 18.07 СЗ 3 25 км 3/3 600 м
[Sc]
+12.9 +11.5 91 +11 +11 1013.2 1012.9
02 18.07 СЗ 2 25 км 1/1 600 м
[Sc]
+12.5 +11.4 93 +11 +11 1013.1 1012.8
03 18.07 СЗ 2 25 км 1/1 600 м
[Sc]
+13.0 +12.2 95 +12 +12 1013.1 1012.8
04 18.07 СЗ 2 25 км 4/4 300 м
[Cu med, cong]
+13.8 +13.0 95 +13 +14 1013.3 1013.0
05 18.07 З 3 30 км 3/3 600 м
[Cu med, cong]
+14.7 +13.4 92 +14 +15 1013.5 1013.2
06 18.07 СЗ 3 30 км 4/4 600 м
[Cu med, cong]
+15.8 +13.6 87 +15 +18 1013.6 1013.3 +12.3 +15.8
07 18.07 З 3 30 км 6/6 300 м
[Cu med, cong]
+16.7 +14.0 84 +16 +19 1013.7 1013.4
08 18.07 З 3 30 км 6/6 480 м
[Cu med, cong]
+17.3 +14.0 81 +17 +21 1013.8 1013.5
09 18.07 З 3 30 км 6/6 300 м
[Cu med, cong]
+18.6 +13.7 73 +19 +24 1014.1 1013.8
10 18.07 З 2 30 км 5/5 600 м
[Cu med, cong]
+18.3 +12.7 70 +19 +27 1014.2 1013.9
11 18.07 С 4 30 км 3/3 600 м
[Cu med, cong]
+19.9 +13.6 67 +22 +29 комфорт 1014.1 1013.8
12 18.07 С 4 30 км 3/3 600 м
[Cu med, cong]
+19.7 +13.6 68 +21 +28 комфорт 1014.2 1013.9
13 18.07 С 3 30 км 3/3 600 м
[Cu med, cong]
+20.1 +14.0 68 +23 +30 комфорт 1014.4 1014.1
14 18.07 С 4 30 км 3/3 600 м
[Cu med, cong]
+19.2 +13.4 69 +20 +25 1014.4 1014.1
15 18.07 СВ 3 30 км 3/3 600 м
[Cu med, cong]
+19.2 +13.6 70 +21 +24 комфорт 1014.3 1014.0
16 18.07 СВ 3 30 км 3/3 600 м
[Cu med, cong]
+18.6 +13.9 74 +19 +21 1014.1 1013.8
17 18.07 СВ 2 30 км 3/3 600 м
[Cu med, cong]
+17.8 +13.5 76 +18 +19 1014.1 1013.8
18 18.07 СВ 2 30 км 1/1 600 м
[Cu hum]
+17.1 +13.6 80 +17 +18 1014.0 1013.7 +15.8 +20.3
19 18.07 СВ 2 30 км 1/1 600 м
[Sc diur, vesp]
+15.9 +13.4 85 +16 +16 1014.1 1013.8
20 18.07 СВ 2 30 км ясно +14.5 +12.7 89 +14 +14 1014.3 1014.0
21 18.07 В 2 30 км ясно +13.7 +12.1 90 +13 +13 1014.4 1014.1
22 18.07 ЮВ 2 25 км ясно +13.3 +12.2 93 +13 +13 1014.4 1014.1
23 18.07 ЮВ 2 25 км ясно +12.9 +11.8 93 +12 +12 1014.5 1014.2
00 19.07 ЮВ 2 25 км ясно +12.5 +11.2 92 +12 +12 1014.3 1014.0
01 19.07 Ю 2 25 км ясно +12.1 +11.0 93 +11 +11 1014.3 1014.0
02 19.07 ЮВ 2 30 км 1/0
[Ac trans]
+11.9 +10.6 92 +11 +11 1014.3 1014.0
03 19.07 Ю 2 30 км 1/0
[Ac trans Ci fib]
+12.0 +10.9 93 +11 +11 1014.2 1013.9
04 19.07 Ю 1 30 км 1/0
[Ac trans Ci fib]
+12.4 +11.5 94 +12 +13 1014.1 1013.8
05 19.07 ЮВ 2 30 км 1/0
[Ac trans Ci fib]
+14.0 +13.4 96 +13 +16 1014.0 1013.7
06 19.07 ЮВ 3 30 км 3/0
[Ac trans Ci sp]
+16.5 +14.7 89 +16 +20 1014.1 1013.8 +11.8 +17.1
07 19.07 ЮВ 3 30 км 3/0
[Ac trans Ci fib]
+17.8 +14.5 81 +18 +24 1014.1 1013.8
08 19.07 В 3 30 км 3/0
[Ci fib]
+19.7 +15.1 75 +22 +30 комфорт 1014.1 1013.8
09 19.07 В 4 30 км 3/0
[Ci fib]
+20.4 +14.7 70 +23 +31 комфорт 1014.0 1013.7
10 19.07 В 3 30 км 3/3 1000 м
[Cu med, cong Ci sp]
+21.3 +15.4 69 +24 +33 комфорт 1013.9 1013.6
11 19.07 В 3 30 км 4/3 1000 м
[Cu med, cong Ci sp]
+21.2 +15.5 70 +24 +33 комфорт 1013.9 1013.6
12 19.07 СВ 4 30 км 5/3 1000 м
[Cu med, cong Ci sp]
+21.5 +15.6 69 +25 +31 комфорт 1013.7 1013.4
13 19.07 СВ 4 30 км 6/3 1000 м
[Cu med, cong Ci sp]
+20.9 +14.5 67 +24 +29 комфорт 1013.6 1013.3
14 19.07 СВ 4
{9}
30 км 8/1 1000 м
[Cu hum Cs]
+20.3 +15.9 76 +23 +28 комфорт 1013.4 1013.1
15 19.07 СВ 4
{9}
30 км 8/0
[Cs]
+20.5 +15.9 75 +24 +27 комфорт 1013.4 1013.1
17 19.07 СВ 3 30 км 8/0
[Ci sp]
+19.5 +14.9 75 +22 +23 комфорт 1013.4 1013.1
18 19.07 СВ 3
{9}
30 км 6/0
[Ci sp]
+18.7 +14.6 77 +20 +20 1013.4 1013.1 +16.4 +21.6
19 19.07 СВ 3 30 км 4/0
[Ci sp]
+17.5 +14.4 82 +18 +18 1013.7 1013.4
20 19.07 СВ 3 30 км 3/0
[Ac trans Ci fib]
+16.7 +14.3 86 +16 +16 1013.9 1013.6
21 19.07 В 3 25 км 3/0
[Ac trans Ci fib]
+16.1 +14.5 90 +16 +16 1014.0 1013.7
22 19.07 СВ 3 25 км ясно +15.9 +14.4 91 +15 +15 1014.2 1013.9
23 19.07 СВ 3 25 км ясно +15.6 +14.5 93 +15 +15 1014.2 1013.9
00 20.07 СВ 2 20 км 1/0
[Ac trans]
+15.4 +14.4 94 +15 +15 1014.3 1014.0
01 20.07 СВ 2 20 км 1/0
[Ac trans]
+15.4 +14.8 96 +15 +15 1014.2 1013.9
02 20.07 СВ 3 20 км 1/0
[Ac trans]
+15.1 +14.3 95 +14 +14 1014.4 1014.1
03 20.07 СВ 2 15 км ясно +15.4 +14.8 96 +15 +15 1014.6 1014.3
04 20.07 СВ 2 20 км ясно +16.3 +15.7 96 +16 +17 1014.9 1014.6
05 20.07 СВ 3 25 км ясно +17.5 +16.2 92 +17 +19 1015.1 1014.8
06 20.07 СВ 4 30 км 1/1 600 м
[Cu hum]
+18.4 +16.6 89 +19 +22 1015.5 1015.2 +15.1 +18.7
07 20.07 СВ 3 30 км ясно +19.2 +16.6 85 +21 +27 комфорт 1015.6 1015.3
08 20.07 В 2 30 км 4/0
[Ci sp]
+20.3 +16.5 79 +24 +34 комфорт 1015.9 1015.6
09 20.07 СВ 2 30 км 4/0
[Ci sp]
+21.8 +16.3 71 +26 +38 душно 1016.3 1016.0
10 20.07 СВ 2 30 км 4/0
[Ci sp]
+22.0 +15.1 65 +26 +39 душно 1016.3 1016.0
11 20.07 СВ 2 30 км 4/0
[Ci sp]
+23.0 +14.0 57 +26 +40 жарко 1016.4 1016.1
12 20.07 СВ 2 30 км 4/0
[Ci sp]
+22.4 +16.2 68 +27 +40 душно 1016.5 1016.2
13 20.07 СВ 4 30 км 5/0
[Ci sp]
+22.2 +16.2 69 +26 +34 душно 1016.3 1016.0
14 20.07 СВ 2 30 км 5/0
[Ci sp]
+22.0 +15.8 68 +26 +34 душно 1016.3 1016.0
15 20.07 СВ 3 30 км 5/0
[Ci sp]
+21.4 +17.0 76 +25 +30 комфорт 1016.2 1015.9
16 20.07 СВ 4 30 км 5/0
[Ci sp]
+21.4 +16.4 73 +25 +27 комфорт 1015.8 1015.5
17 20.07 В 4 30 км 6/0
[Ci sp]
+20.6 +16.4 77 +24 +25 комфорт 1015.5 1015.2
18 20.07 В 4 30 км 4/0
[Ci sp]
+19.7 +16.2 80 +22 +22 комфорт 1015.2 1014.9 +18.4 +23.3
19 20.07 СВ 4 30 км 5/0
[Ci sp]
+18.8 +16.4 86 +20 +20 1015.4 1015.1
20 20.07 В 3 30 км 5/0
[Ci sp]
+18.2 +16.5 90 +19 +19 1015.4 1015.1
21 20.07 В 4 30 км 8/4 2000 м
[Sc Ac trans Ci sp]
+18.3 +16.5 89 +19 +19 1015.4 1015.1
22 20.07 В 3 30 км 8/4 2000 м
[Sc Ac trans Ci sp]
+18.1 +16.6 91 +18 +18 1015.3 1015.0
23 20.07 В 3 30 км 6/3 2000 м
[Sc Ci sp]
+18.1 +16.9 93 +18 +18 1015.1 1014.8
00 21.07 В 3 30 км 6/3 2000 м
[Sc Ci sp]
+17.7 +16.7 94 +18 +18 1014.4 1014.1
01 21.07 ЮВ 3 25 км 5/0
[Ci sp]
+17.7 +16.7 94 +18 +18 1013.8 1013.5
02 21.07 ЮВ 2 25 км 8/0
[Ac und Ci sp]
+17.6 +16.6 94 +18 +18 1013.3 1013.0
03 21.07 ЮВ 3 20 км 8/0
[Ac trans Ci sp]
+17.1 +16.0 93 +17 +17 1013.0 1012.7
04 21.07 ЮВ 3 20 км 8/4 600 м
[Cu med, cong Ci sp]
+18.2 +16.4 89 +19 +19 1012.8 1012.5
05 21.07 ЮВ 3 20 км 8/3 600 м
[Cu med, cong Ac trans Ci sp]
+18.4 +16.4 88 +19 +20 1012.7 1012.4

 

Местоположение метеостанции Хель (Польша): широта 54.60 долгота 18.82 высота над уровнем моря 3 м.

В архиве по умолчанию представлена погода в Хеле за последнюю неделю. Архивные данные за месяц целиком и за предыдущие месяцы, начиная с января 2011 года, Вы можете получить, выбрав интересующий диапазон дат из раскрывающегося списка и нажав кнопку "Ввод!".


*Определитесь, кто Вы:
робот инопланетянин человек

Внимание! Время в таблицах - всемирное. Для получения местного времени необходимо прибавить поправку, которая равна 1 ч.

Смотрите также архив погоды в соседних городах и на ближайших метеорологических станциях:

Погода на Авиабазе Гдыня-Оксывье (Польша) (20 км)
Погода в Эльблонге (Польша) (62 км)
Погода в Балтийске (Калининградская область, Россия) (68 км)
Погода в Лемборке (Польша) (69 км)
Погода в Лебунии (Польша) (71 км)
Погода в Мамоново (Калининградская область, Россия) (73 км)
Погода в Лебе (Польша) (85 км)
Погода в Пионерском (Калининградская область, Россия) (97 км)
Погода в Рыбном Порту (Калининградская область, Россия) (105 км)
Погода в Калининграде (Калининградская область, Россия) (116 км)

Пояснения к столбцам:

Ветер - указаны скорость ветра в м/с - средняя за 10 мин, порывы в срок и между сроками (в фигурных скобках) и направление, откуда дует ветер: С - северный, СВ - северо-восточный, В - восточный, ЮВ - юго-восточный, Ю - южный, ЮЗ - юго-западный, З - западный, СЗ - северо-западный.
Видимость - горизонтальная дальность видимости в метрах или километрах. При видимости от 1 до 10 км при отсутствии осадков обычно наблюдается дымка, при ухудшении видимости до 1 км и менее - туман. В сухую погоду видимость может ухудшаться дымом, пылью или мглою.
Явления - указаны атмосферные явления, наблюдавшиеся в срок или в последний час перед сроком; фигурными скобками обозначены явления, наблюдавшиеся между сроками (за 1-3 часа до срока); квадратными скобками обозначены град или гололедные отложения с указанием их диаметра в мм.
Облачность - указаны через наклонную черту общая и нижняя облачность в баллах и высота нижней границы облаков в метрах; квадратными скобками обозначены формы облаков: Ci - перистые, Cs - перисто-слоистые, Cc - перисто-кучевые, Ac - высококучевые, As - высокослоистые, Sc - слоисто-кучевые, Ns - слоисто-дождевые, Cu - кучевые, Cb - кучево-дождевые. Подробнее классификацию облаков см. в Атласе облаков (PDF).
T - Температура воздуха - температура, измеренная на высоте 2 м над землей.
Td - Температура точки росы - температура, при понижении до которой содержащийся в воздухе водяной пар достигнет насыщения.
f - Относительная влажность воздуха - влажноcть воздуха, измеренная на высоте 2 м над землей.
Te - Эффективная температура - температура, которую ощущает одетый по сезону человек в тени. Характеристика душности погоды. При расчете учитывается влияние влажности воздуха и скорости ветра на теплоощущения человека.
Tes - Эффективная температура на солнце - температура, которую ощущает человек, с поправкой на солнечный нагрев. Характеристика знойности погоды. Зависит от высоты солнца над горизонтом, облачности и скорости ветра. Ночью, в пасмурную погоду, а также при ветре 12 м/с и более поправка равна нулю.
P - Атмосферное давление - приведенное к уровню моря атмосферное давление.
Po - Атмосферное давление - измеренное на уровне метеостанции атмосферное давление.
Tmin - Минимальная температура - минимум температуры воздуха на высоте 2 м над землей.
Tmax - Максимальная температура - максимум температуры воздуха на высоте 2 м над землей.
R - Количество осадков - Количество выпавших осадков за период времени, мм. При наведении курсора мыши на число - период времени, за который выпало указанное количество осадков.
R24 - Количество осадков - Количество выпавших осадков за 24 часа, мм.
S - Снежный покров - Высота снежного покрова, см. При наведении курсора мыши на число - состояние снежного покрова и степень покрытия местности в баллах.